User: anonymous   Login
Location: Azul
(36.7830°S, 59.8500°W)
Time: 01:44:07
(UTC-03:00)
Language:

CAS-6 - Orbit

View from above orbital plane
View from above orbital plane
View from above satellite
View from above satellite

Ground track
Ground track

The orbit data is extracted from the following two-line orbital elements,

1 44881U 19093C   21295.85060670  .00000157  00000-0  26751-4 0  9996
2 44881  97.9159  13.2383 0013766 236.7324 123.2561 14.81495486 99599
Epoch (UTC): 22 October 2021 20:24:52
Eccentricity: 0.0013766
inclination: 97.9159°
perigee height: 615 km
apogee height: 634 km
right ascension of ascending node: 13.2383°
argument of perigee: 236.7324°
revolutions per day: 14.81495486
mean anomaly at epoch: 123.2561°
orbit number at epoch: 9959

The dashed part of the orbit path shows where the satellite is in the earth's shadow,  

DLR